Weather History for Salamanca, Spain

Change the Weather History Date:

Wednesday, October 12, 2011

  Actual Average Record
Temperature  
Mean Temperature 64 °F -  
Max Temperature 87 °F - - ()
Min Temperature 41 °F - - ()
Degree Days  
Heating Degree Days 1    
Growing Degree Days 14 (Base 50)    
Moisture  
Dew Point 38 °F    
Average Humidity 47    
Maximum Humidity 87    
Minimum Humidity 10    
Precipitation  
Precipitation 0.00 in 0.05 in - ()
Sea Level Pressure  
Sea Level Pressure 30.29 in    
Wind  
Wind Speed 1 mph ()    
Max Wind Speed 5 mph    
Max Gust Speed 16 mph    
Visibility 11.2 miles    
Events      
T = Trace of Precipitation, MM = Missing Value Source: Averaged Metar Reports

Daily Weather History Graph

Daily Weather History Graph

Search for Another Location

Airport:

Trip Planner

Search our weather history database for the weather conditions in past years. The results will help you decide how hot, cold, wet, or windy it might be!

Date:

Astronomy

Oct. 12, 2011 Rise Set
Actual Time 8:29 AM CEST 7:46 PM CEST
Civil Twilight 8:02 AM CEST 8:14 PM CEST
Nautical Twilight 7:30 AM CEST 8:46 PM CEST
Astronomical Twilight 6:58 AM CEST 9:17 PM CEST
Moon 7:40 PM CEST (10/12) 8:51 AM CEST (10/12)
Length of Visible Light 12h 12m
Length of Day
11h 17m
Full, 100% of the Moon is Illuminated
Oct 12
Full
Oct 20
Last Quarter
Oct 26
New
Nov 2
First Quarter
Nov 10
Full

Hourly Weather History & Observations

Time (CEST) Temp. Dew Point Humidity Pressure Visibility Wind Dir Wind Speed Gust Speed Precip Events Conditions
12:00 AM 50.0 °F 42.8 °F 76% 30.33 in - Variable 1.2 mph - N/A   Clear
1:00 AM 51.8 °F 41.0 °F 67% 30.33 in - Calm Calm - N/A   Clear
2:00 AM 50 °F 42 °F 66%  in 12 mi Calm Calm - -  
2:00 AM 48.2 °F 42.8 °F 82% 30.33 in - Calm Calm - N/A   Clear
3:00 AM 46.4 °F 42.8 °F 87% 30.30 in - Calm Calm - N/A   Clear
4:00 AM 46.4 °F 41.0 °F 81% 30.30 in - Calm Calm - N/A   Clear
5:00 AM 44.6 °F 39.2 °F 81% 30.30 in - Variable 1.2 mph - N/A   Clear
6:00 AM 42.8 °F 39.2 °F 87% 30.30 in - Calm Calm - N/A   Clear
7:00 AM 42.8 °F 39.2 °F 87% 30.30 in - Calm Calm - N/A   Clear
8:00 AM 42 °F 38 °F 80%  in 9 mi Calm Calm - -  
8:00 AM 41.0 °F 37.4 °F 87% 30.30 in - Calm Calm - N/A   Clear
8:30 AM 41.0 °F 37.4 °F 87% 30.30 in - Calm Calm - N/A   Clear
9:00 AM 41.0 °F 37.4 °F 87% 30.30 in - Calm Calm - N/A   Clear
9:30 AM 48.2 °F 39.2 °F 71% 30.33 in - Calm Calm - N/A   Clear
10:00 AM 50.0 °F 41.0 °F 71% 30.33 in - Calm Calm - N/A   Clear
10:30 AM 55.4 °F 37.4 °F 51% 30.33 in - Variable 1.2 mph - N/A   Clear
11:00 AM 60.8 °F 41.0 °F 48% 30.33 in - Calm Calm - N/A   Clear
11:30 AM 64.4 °F 39.2 °F 40% 30.33 in - Calm Calm - N/A   Clear
12:00 PM 69.8 °F 39.2 °F 33% 30.33 in - Calm Calm - N/A   Clear
12:30 PM 71.6 °F 39.2 °F 31% 30.33 in - Calm Calm - N/A   Clear
1:00 PM 73.4 °F 41.0 °F 31% 30.33 in - Variable 1.2 mph - N/A   Clear
1:30 PM 78.8 °F 39.2 °F 24% 30.30 in - Variable 1.2 mph - N/A   Clear
2:00 PM 82 °F 35 °F 10%  in 12 mi ENE 4.6 mph - -  
2:00 PM 80.6 °F 35.6 °F 20% 30.30 in - Variable 3.5 mph - N/A   Clear
2:30 PM 82.4 °F 33.8 °F 17% 30.30 in - NE 4.6 mph - N/A   Clear
3:00 PM 82.4 °F 32.0 °F 16% 30.27 in - NE 4.6 mph - N/A   Clear
3:30 PM 84.2 °F 32.0 °F 15% 30.27 in - NE 4.6 mph - N/A   Clear
4:00 PM 84.2 °F 32.0 °F 15% 30.27 in - Variable 2.3 mph 16.1 mph N/A   Clear
4:30 PM 84.2 °F 32.0 °F 15% 30.24 in - Calm Calm - N/A   Clear
5:00 PM 84.2 °F 32.0 °F 15% 30.24 in - Variable 1.2 mph - N/A   Clear
5:30 PM 84.2 °F 30.2 °F 14% 30.24 in - NNE 3.5 mph - N/A   Clear
6:00 PM 84.2 °F 32.0 °F 15% 30.24 in - NNE 3.5 mph - N/A   Clear
6:30 PM 84.2 °F 32.0 °F 15% 30.24 in - North 3.5 mph - N/A   Clear
7:00 PM 80.6 °F 33.8 °F 18% 30.24 in - Variable 2.3 mph - N/A   Clear
7:30 PM 77.0 °F 37.4 °F 24% 30.24 in - Variable 2.3 mph - N/A   Clear
8:00 PM 72 °F 37 °F 17%  in 12 mi NNE 2.3 mph - -  
8:00 PM 71.6 °F 35.6 °F 27% 30.24 in - Variable 2.3 mph - N/A   Clear
9:00 PM 66.2 °F 39.2 °F 37% 30.24 in - Calm Calm - N/A   Clear
10:00 PM 57.2 °F 39.2 °F 51% 30.27 in - Variable 1.2 mph - N/A   Clear
11:00 PM 53.6 °F 42.8 °F 67% 30.27 in - Calm Calm - N/A   Clear